Content
SEND FEEDBACK

Daily
Averages
Monthly
Summary
United States of America

NEW YORK - CENTRAL PARK, NEW YORK


Home > North America > United States > New York
Elevation: 14 feet     Latitude: 40 47N     Longitude: 073 58W

WEATHER
 
SELECT A DAY
Number of Records: 151,464;   Date Range: 11/1/95 - 10/30/14
 
SHARE

PRINT THIS DATA

[ ← Previous Day ]
WEATHER ALMANAC - MAY 4, 2014
[ Next Day → ]
[ °C ]   °F
Weather ElementAverageHighLow
Temperature58 °F63 °F (4:51 pm)54 °F (5:51 am)
Dewpoint35.7 °F48 °F (1:51 am)21.9 °F (7:51 pm)
Humidity45.4 %77 % (1:51 am)23 % (7:51 pm)
Barometer29.73 in29.79 in (6:51 am)29.65 in (3:51 pm)
Wind Speed8.1 mph15 mph (12:51 pm)
Wind Gust26.5 mph (12:51 pm)
Weather ElementAverage
Visibility10 mi
Wind DirectionSE (135.2 °)

Weather ElementTotal
Precipitation0.02 in
Heating Degree Days6.5 (Base 65)
Growing Degree Days8.5 (Base 50)
Averaged from 23 records on May 4, 2014
WEATHER CONDITIONS BREAKOUT
WIND DIRECTION BREAKOUT
WEATHER BY HOUR - MAY 4, 2014
[ °C ]   °F
Local TimeTemperatureDewpointHumidityBarometerVisibilityWind DirectionWind SpeedGust SpeedPrecipitationEventsConditions
1:51 AM55.0 °F48.0 °F77 %29.77 in10.0 miVariable3.5 mphScattered Clouds
2:51 AM55.9 °F46.0 °F69 %29.77 in10.0 miNorthMostly Cloudy
3:51 AM55.9 °F46.0 °F69 %29.76 in10.0 miVariable4.6 mphMostly Cloudy
4:51 AM55.0 °F44.1 °F67 %29.76 in10.0 miVariable4.6 mph18.4 mphClear
5:51 AM54.0 °F42.1 °F64 %29.78 in10.0 miWest (260°)4.6 mphClear
6:51 AM55.0 °F41.0 °F59 %29.79 in10.0 miVariable4.6 mphPartly Cloudy
7:51 AM57.0 °F39.0 °F51 %29.78 in10.0 miVariable3.5 mphMostly Cloudy
8:51 AM57.0 °F39.0 °F51 %29.77 in10.0 miWest (280°)8.1 mphOvercast
9:51 AM57.0 °F37.9 °F49 %29.74 in10.0 miNorthOvercast
10:51 AM59.0 °F37.0 °F44 %29.72 in10.0 miVariable6.9 mph19.6 mphOvercast
11:51 AM61.0 °F35.1 °F38 %29.70 in10.0 miVariable6.9 mph24.2 mphScattered Clouds
12:51 PM60.1 °F34.0 °F38 %29.69 in10.0 miWest (260°)15.0 mph26.5 mphOvercast
1:51 PM59.0 °F33.1 °F38 %29.68 in10.0 miNorthOvercast
2:51 PM62.1 °F34.0 °F35 %29.66 in10.0 miWSW (250°)12.7 mph21.9 mphMostly Cloudy
3:51 PM62.1 °F34.0 °F35 %29.65 in10.0 miWest (270°)8.1 mphScattered Clouds
4:51 PM63.0 °F33.1 °F33 %29.66 in10.0 miNW (320°)13.8 mph26.5 mph0.00 inMostly Cloudy
5:51 PM57.9 °F37.9 °F47 %29.68 in10.0 miWest (270°)10.4 mph21.9 mph0.02 inMostly Cloudy
6:51 PM60.1 °F34.0 °F38 %29.68 in10.0 miNorthClear
7:51 PM60.1 °F21.9 °F23 %29.70 in10.0 miNorthClear
8:51 PM59.0 °F24.1 °F26 %29.74 in10.0 miWNW (300°)8.1 mph19.6 mphClear
9:51 PM57.9 °F25.0 °F28 %29.77 in10.0 miNW (310°)12.7 mph23.0 mphClear
10:51 PM57.0 °F27.0 °F32 %29.78 in10.0 miWNW (300°)9.2 mph16.1 mphClear
11:51 PM55.0 °F27.0 °F34 %29.79 in10.0 miWNW (290°)9.2 mph19.6 mphClear
Hourly data recorded from KNYC, located miles away from New York - Central Park, New York







STORIES FROM OUR PARTNERS